TimeMST,TemperatureF,Dew PointF,Humidity,Sea Level PressureIn,VisibilityMPH,Wind Direction,Wind SpeedMPH,Gust SpeedMPH,PrecipitationIn,Events,Conditions,WindDirDegrees,DateUTC
12:52 AM,26.1,15.1,63,30.13,10.0,NNW,8.1,-,N/A,,Clear,340,2011-11-07 07:52:00
1:52 AM,24.1,15.1,69,30.15,10.0,NW,10.4,-,N/A,,Clear,320,2011-11-07 08:52:00
2:52 AM,24.8,14.0,64,30.07,10.0,NW,8.1,-,N/A,,Clear,320,2011-11-07 09:52:00
3:52 AM,24.1,14.0,65,30.16,10.0,NW,10.4,-,N/A,,Clear,310,2011-11-07 10:52:00
4:52 AM,19.9,12.0,71,30.19,10.0,West,9.2,-,N/A,,Clear,280,2011-11-07 11:52:00
5:52 AM,18.0,12.0,78,30.22,10.0,Calm,Calm,-,N/A,,Clear,0,2011-11-07 12:52:00
6:52 AM,21.0,12.9,71,30.24,10.0,South,4.6,-,N/A,,Clear,190,2011-11-07 13:52:00
7:52 AM,26.6,17.6,69,30.14,10.0,Calm,Calm,-,N/A,,Clear,0,2011-11-07 14:52:00
8:52 AM,33.8,19.4,56,30.15,10.0,South,4.6,-,N/A,,Clear,180,2011-11-07 15:52:00
9:52 AM,39.0,15.1,38,30.25,10.0,South,9.2,-,N/A,,Clear,190,2011-11-07 16:52:00
10:52 AM,42.1,12.9,31,30.23,10.0,South,11.5,17.3,N/A,,Clear,170,2011-11-07 17:52:00
11:52 AM,42.8,12.2,29,30.19,10.0,SE,11.5,-,N/A,,Clear,140,2011-11-07 18:52:00
12:52 PM,44.1,16.0,32,30.16,10.0,SSE,11.5,-,N/A,,Clear,150,2011-11-07 19:52:00
1:52 PM,44.1,16.0,32,30.15,10.0,SSE,16.1,21.9,N/A,,Clear,150,2011-11-07 20:52:00
2:52 PM,43.0,18.0,37,30.14,10.0,SSE,15.0,-,N/A,,Clear,160,2011-11-07 21:52:00
3:52 PM,41.0,23.0,49,30.06,10.0,SSE,10.4,-,N/A,,Clear,160,2011-11-07 22:52:00
4:52 PM,35.6,24.8,65,30.08,10.0,SSE,8.1,-,N/A,,Clear,150,2011-11-07 23:52:00
5:52 PM,34.0,25.0,70,30.21,10.0,SSE,11.5,-,N/A,,Clear,150,2011-11-08 00:52:00
6:52 PM,30.9,24.1,76,30.22,10.0,South,9.2,-,N/A,,Clear,170,2011-11-08 01:52:00
7:52 PM,30.0,24.1,79,30.21,10.0,SSW,6.9,-,N/A,,Clear,200,2011-11-08 02:52:00
8:52 PM,30.2,24.8,80,30.11,10.0,SSW,10.4,-,N/A,,Clear,200,2011-11-08 03:52:00
9:52 PM,28.0,23.0,81,30.19,10.0,SW,5.8,-,N/A,,Clear,220,2011-11-08 04:52:00
10:52 PM,26.6,21.2,80,30.09,10.0,South,9.2,-,N/A,,Clear,180,2011-11-08 05:52:00
11:52 PM,26.1,23.0,88,30.16,10.0,SSW,8.1,-,N/A,,Clear,200,2011-11-08 06:52:00